Location: Limerick
(52.6650°N, 8.6230°W)
Time: 20:02:27
(UTC+01:00)

ISS - Pass Details

Date: 25 May 2017
Orbit: 401 x 408 km, 51.6° (Epoch: 26 June)

Event Time Altitude Azimuth Distance (km) Brightness Sun altitude
Rises 23:56:15 0° 240° (WSW) 2,334 0.0 -13.5°
Reaches altitude 10° 23:58:23 10° 234° (SW) 1,474 -1.1 -13.7°
Maximum altitude 00:01:34 45° 160° (SSE) 566 -3.6 -13.8°
Drops below altitude 10° 00:04:45 10° 86° (E) 1,475 -1.2 -14.0°
Sets 00:06:52 0° 80° (E) 2,336 -0.1 -14.1°
